Orbital Elements at Epoch 2459000.5 (2020-May-31.0) TDB
Reference: JPL 29 (heliocentric ecliptic J2000)
Element | Value | Uncertainty (1-sigma) | Units |
e | .2097729631393486 | 3.4697e-08 | |
a | 2.386945222244562 | 8.5099e-09 | au |
q | 1.886228650123009 | 8.4198e-08 | au |
i | 8.560534095477751 | 4.054e-06 | deg |
node | 319.8262124690717 | 2.5459e-05 | deg |
peri | 334.9793320389588 | 2.7103e-05 | deg |
M | 85.98211202091142 | 8.9156e-06 | deg |
tp | 2458678.787664403921 (2019-Jul-14.28766440) | 3.3326e-05 | TDB |
period | 1346.982972300346 3.69 | 7.2034e-06 1.972e-08 | d yr |
n | .2672639576023745 | 1.4293e-09 | deg/d |
Q | 2.887661794366114 | 1.0295e-08 | au |
|
| | Orbit Determination Parameters
Additional Information
|